This is the latest recevied weather packets stored in our database for station/object JE6MIQ-13. If no packets are shown the sender has not sent any weather packets the latest 10 day(s).
| Time | Temp. | Humidity | Pressure | Rain* | Wind** | Luminosity | Snow |
|---|---|---|---|---|---|---|---|
| 1777879354 | 21.11° C | 25% | 1014.1 hPa | 0 mm | - | - | - |
| 1777878754 | 21.11° C | 25% | 1014.1 hPa | 0 mm | - | - | - |
| 1777878154 | 20.56° C | 25% | 1014.6 hPa | 0 mm | - | - | - |
| 1777877553 | 20.56° C | 25% | 1014.4 hPa | 0 mm | - | - | - |
| 1777876954 | 20.56° C | 25% | 1014.4 hPa | 0 mm | - | - | - |
| 1777876354 | 21.67° C | 25% | 1014.4 hPa | 0 mm | - | - | - |
| 1777875755 | 21.11° C | 25% | 1014.7 hPa | 0 mm | - | - | - |
| 1777875155 | 20.56° C | 25% | 1014.5 hPa | 0 mm | - | - | - |
| 1777874553 | 21.11° C | 25% | 1014.5 hPa | 0 mm | - | - | - |
| 1777873953 | 21.67° C | 25% | 1014.4 hPa | 0 mm | - | - | - |
| 1777873353 | 21.67° C | 25% | 1014.4 hPa | 0 mm | - | - | - |
| 1777872753 | 22.78° C | 25% | 1014.3 hPa | 0 mm | - | - | - |
| 1777872153 | 22.78° C | 25% | 1014 hPa | 0 mm | - | - | - |
| 1777871554 | 22.22° C | 25% | 1014 hPa | 0 mm | - | - | - |
| 1777870953 | 23.33° C | 25% | 1014.3 hPa | 0 mm | - | - | - |
| 1777870354 | 22.22° C | 25% | 1014.1 hPa | 0 mm | - | - | - |
| 1777869753 | 22.78° C | 25% | 1014.1 hPa | 0 mm | - | - | - |
| 1777869153 | 21.67° C | 25% | 1013.8 hPa | 0 mm | - | - | - |
| 1777868554 | 22.22° C | 25% | 1014 hPa | 0 mm | - | - | - |
| 1777867954 | 21.67° C | 25% | 1014 hPa | 0 mm | - | - | - |
| 1777867354 | 21.11° C | 25% | 1013.7 hPa | 0 mm | - | - | - |
| 1777866753 | 21.11° C | 25% | 1013.9 hPa | 0 mm | - | - | - |
| 1777866154 | 22.22° C | 25% | 1013.9 hPa | 0 mm | - | - | - |
| 1777865554 | 20.56° C | 25% | 1013.4 hPa | 0 mm | - | - | - |
| 1777864954 | 21.11° C | 25% | 1013.6 hPa | 0 mm | - | - | - |
* Rain latest hour (hover to see other rain measurements)
** Current wind speed in m/s (hover to see current wind gust speed)